Home   Weather   Hobart   Past weeks
Flag for Australia

Past Weather in Hobart, Tasmania, Australia — Yesterday and Last 2 Weeks

Now
52 °F

Passing clouds.


Feels Like: 47 °F
Forecast: 62 / 40 °F
Wind: 14 mph from Northwest

Location: Hobart Airport

Current Time: Aug 23, 2019 at 9:04:08 pm

Latest Report: Aug 23, 2019 at 8:30 pm


Visibility: N/A

Pressure: 29.83 "Hg

Humidity: 58%

Dew Point: 37 °F

Location of HobartLocation

Past Weather in Hobart — Graph

°F

Hobart Temperature Yesterday

Maximum temperature yesterday: 52 °F (at 2:30 pm)
Minimum temperature yesterday: 37 °F (at 9:30 pm)
Average temperature yesterday: 45 °F

High & Low Weather Summary for the Past Weeks

 TemperatureHumidityPressure
High63 °F (Aug 15, 1:00 pm)100% (Aug 14, 2:00 am)30.24 "Hg (Aug 14, 2:00 am)
Low34 °F (Aug 9, 4:00 am)30% (Aug 20, 7:30 pm)29.18 "Hg (Aug 9, 3:00 am)
Average48 °F68%29.75 "Hg
* Reported Aug 8 8:00 pm — Aug 23 8:00 pm, Hobart. Weather by CustomWeather, © 2019

Note: Actual official high and low records may vary slightly from our data, if they occured in-between our weather recording intervals... More about our weather records

Advertising

Hobart Weather History for the Previous 24 Hours

Scroll right to see more
 ConditionsComfort  
Time TempWeatherWind HumidityBarometerVisibility
8:00 pm
Fri, Aug 23
54 °FPassing clouds.17 mph58%29.86 "HgN/A
7:30 pm54 °FPassing clouds.18 mph58%29.86 "HgN/A
7:00 pm54 °FPassing clouds.18 mph58%29.86 "HgN/A
6:30 pm55 °FPassing clouds.16 mph51%29.86 "HgN/A
6:00 pm55 °FPassing clouds.15 mph51%29.83 "HgN/A
5:30 pm57 °FPassing clouds.15 mph44%29.86 "HgN/A
5:00 pm57 °FPassing clouds.17 mph44%29.86 "HgN/A
4:30 pm59 °FPassing clouds.16 mph42%29.86 "HgN/A
4:00 pm61 °FPassing clouds.15 mph42%29.86 "HgN/A
3:30 pm61 °FPassing clouds.17 mph39%29.86 "HgN/A
3:00 pm61 °FPassing clouds.17 mph39%29.86 "HgN/A
2:30 pm61 °FPassing clouds.14 mph42%29.89 "HgN/A
2:00 pm59 °FPassing clouds.15 mph42%29.89 "HgN/A
1:30 pm57 °FPassing clouds.17 mph48%29.92 "HgN/A
1:00 pm57 °FPassing clouds.20 mph44%29.92 "HgN/A
12:30 pm55 °FPassing clouds.13 mph47%29.95 "HgN/A
11:30 am52 °FPassing clouds.20 mph54%29.98 "HgN/A
11:00 am52 °FPassing clouds.14 mph54%30.01 "HgN/A
10:30 am52 °FPassing clouds.12 mph54%30.01 "HgN/A
10:00 am48 °FPassing clouds.15 mph58%30.04 "HgN/A
9:30 am48 °FPassing clouds.15 mph58%30.04 "HgN/A
9:00 am46 °FPassing clouds.12 mph62%30.07 "HgN/A
8:30 am45 °FPassing clouds.8 mph57%30.07 "HgN/A
8:00 am43 °FPassing clouds.6 mph61%30.07 "HgN/A
7:30 am39 °FPassing clouds.6 mph70%30.07 "HgN/A
6:30 am36 °FClear.6 mph87%30.07 "Hg10 mi
6:00 am39 °FPassing clouds.6 mph70%30.09 "HgN/A
5:30 am39 °FPassing clouds.7 mph70%30.07 "HgN/A
5:00 am39 °FPassing clouds.7 mph70%30.07 "HgN/A
4:30 am39 °FPassing clouds.8 mph70%30.07 "HgN/A
4:00 am39 °FPassing clouds.7 mph75%30.07 "HgN/A
3:30 am41 °FPassing clouds.9 mph70%30.09 "HgN/A
3:00 am43 °FPassing clouds.12 mph66%30.09 "HgN/A
2:30 am43 °FClear.10 mph66%30.09 "HgN/A
2:00 am45 °FPassing clouds.13 mph57%30.12 "HgN/A
1:30 am43 °FPassing clouds.10 mph61%30.12 "HgN/A
1:00 am43 °FClear.9 mph61%30.12 "HgN/A
12:30 am43 °FPassing clouds.7 mph66%30.15 "HgN/A
12:00 am41 °FPassing clouds.7 mph70%30.15 "HgN/A
11:30 pm
Thu, Aug 22
41 °FPassing clouds.6 mph70%30.15 "HgN/A
11:00 pm41 °FPassing clouds.8 mph70%30.15 "HgN/A
10:30 pm43 °FPassing clouds.9 mph66%30.15 "HgN/A
10:00 pm39 °FPassing clouds.1 mph75%30.15 "HgN/A
9:30 pm37 °FPassing clouds.2 mph87%30.15 "HgN/A
9:00 pm41 °FPassing clouds.No wind76%30.15 "HgN/A
Weather by CustomWeather, © 2019

See weather overview